This is the latest recevied weather packets stored in our database for station/object 9W2CHF-4. If no packets are shown the sender has not sent any weather packets the latest 10 day(s).
| Time | Temp. | Humidity | Pressure | Rain* | Wind** | Luminosity | Snow |
|---|---|---|---|---|---|---|---|
| 1778034217 | 32.78° C | 84% | 1010.4 hPa | - | - | - | - |
| 1778033316 | 32.22° C | 86% | 1010.4 hPa | - | - | - | - |
| 1778032416 | 32.22° C | 86% | 1010.4 hPa | - | - | - | - |
| 1778031516 | 32.22° C | 85% | 1010.5 hPa | - | - | - | - |
| 1778030616 | 32.22° C | 86% | 1010.3 hPa | - | - | - | - |
| 1778029716 | 32.22° C | 86% | 1010.1 hPa | - | - | - | - |
| 1778028816 | 31.67° C | 87% | 1009.9 hPa | - | - | - | - |
| 1778027916 | 31.67° C | 86% | 1009.9 hPa | - | - | - | - |
| 1778027015 | 31.67° C | 86% | 1009.6 hPa | - | - | - | - |
| 1778026115 | 31.67° C | 86% | 1009.4 hPa | - | - | - | - |
| 1778025215 | 31.67° C | 85% | 1009.3 hPa | - | - | - | - |
| 1778024315 | 31.67° C | 82% | 1009.2 hPa | - | - | - | - |
| 1778023414 | 31.67° C | 82% | 1008.9 hPa | - | - | - | - |
| 1778022514 | 31.67° C | 83% | 1008.9 hPa | - | - | - | - |
| 1778021614 | 31.67° C | 84% | 1008.5 hPa | - | - | - | - |
| 1778020714 | 31.11° C | 85% | 1008.6 hPa | - | - | - | - |
| 1778019813 | 31.67° C | 83% | 1008.7 hPa | - | - | - | - |
| 1778018913 | 31.67° C | 84% | 1008.4 hPa | - | - | - | - |
| 1778018013 | 31.67° C | 83% | 1008.3 hPa | - | - | - | - |
| 1778017113 | 31.67° C | 84% | 1008.2 hPa | - | - | - | - |
| 1778016213 | 31.67° C | 83% | 1008.3 hPa | - | - | - | - |
| 1778015312 | 31.67° C | 83% | 1008.6 hPa | - | - | - | - |
| 1778014415 | 31.67° C | 83% | 1008.4 hPa | - | - | - | - |
| 1778013515 | 31.67° C | 84% | 1008.6 hPa | - | - | - | - |
| 1778012615 | 31.67° C | 82% | 1008.7 hPa | - | - | - | - |
* Rain since midnight (hover to see other rain measurements)
** Current wind speed in m/s (hover to see current wind gust speed)